Location: Eaton Estates
(41.3089°N, 82.0057°W)
Time: 12:05:43
(UTC+00:00)

USA 308 - Pass Details

Date: 26 October 2021
Orbit: 562 x 573 km, 54.0° (Epoch: 28 November)

Event Time Altitude Azimuth Distance (km) Brightness Sun altitude
Exits shadow 11:19:48 - 286° (WNW) 1,978 5.0 -6.8°
Reaches altitude 10° 11:20:13 10° 290° (WNW) 1,854 4.8 -6.8°
Maximum altitude 11:23:27 21° 340° (NNW) 1,290 4.4 -6.2°
Drops below altitude 10° 11:26:42 10° 31° (NNE) 1,857 5.8 -5.6°
Sets 11:29:24 0° 47° (NE) 2,756 6.9 -5.1°
